TimeEDT,TemperatureF,Dew PointF,Humidity,Sea Level PressureIn,VisibilityMPH,Wind Direction,Wind SpeedMPH,Gust SpeedMPH,PrecipitationIn,Events,Conditions,WindDirDegrees,DateUTC
12:33 AM,55.4,53.6,94,30.07,2.5,East,5.8,-,N/A,,Overcast,80,2013-05-09 04:33:00
12:51 AM,55.0,54.0,96,30.06,2.0,East,4.6,-,N/A,,Overcast,90,2013-05-09 04:51:00
1:05 AM,55.4,53.6,94,30.07,1.5,East,3.5,-,N/A,,Overcast,80,2013-05-09 05:05:00
1:26 AM,55.4,53.6,94,30.06,2.5,East,4.6,-,0.02,Rain,Light Rain,100,2013-05-09 05:26:00
1:33 AM,55.4,53.6,94,30.06,3.0,East,4.6,-,0.03,Rain,Rain,90,2013-05-09 05:33:00
1:51 AM,55.0,53.1,93,30.04,5.0,ENE,4.6,-,0.06,Rain,Rain,70,2013-05-09 05:51:00
2:51 AM,55.0,54.0,96,30.03,10.0,East,4.6,-,0.15,Rain,Light Rain,80,2013-05-09 06:51:00
3:51 AM,55.0,54.0,96,30.01,3.0,Calm,Calm,-,0.01,,Overcast,0,2013-05-09 07:51:00
4:04 AM,55.4,53.6,94,30.02,2.0,East,3.5,-,N/A,,Overcast,90,2013-05-09 08:04:00
4:11 AM,55.4,53.6,94,30.02,1.2,East,4.6,-,N/A,,Overcast,100,2013-05-09 08:11:00
4:51 AM,55.0,54.0,96,29.99,1.0,North,3.5,-,N/A,,Overcast,360,2013-05-09 08:51:00
5:08 AM,55.4,53.6,94,30.00,0.8,North,3.5,-,N/A,,Mist,360,2013-05-09 09:08:00
5:33 AM,55.4,53.6,94,30.00,1.0,NNE,3.5,-,N/A,,Mist,30,2013-05-09 09:33:00
5:44 AM,55.4,53.6,94,30.00,0.2,NNE,3.5,-,N/A,Fog,Fog,20,2013-05-09 09:44:00
5:51 AM,55.0,54.0,96,30.00,0.2,ENE,4.6,-,N/A,Fog,Fog,60,2013-05-09 09:51:00
6:51 AM,55.0,54.0,96,30.00,0.2,ENE,5.8,-,0.01,Fog,Fog,60,2013-05-09 10:51:00
7:02 AM,55.4,53.6,94,30.01,0.5,ENE,4.6,-,N/A,Fog,Fog,70,2013-05-09 11:02:00
7:51 AM,55.0,54.0,96,30.01,0.8,ENE,4.6,-,N/A,,Overcast,70,2013-05-09 11:51:00
8:01 AM,55.4,53.6,94,30.02,1.2,ENE,3.5,-,N/A,,Overcast,70,2013-05-09 12:01:00
8:14 AM,55.4,53.6,94,30.01,3.0,ENE,3.5,-,N/A,,Overcast,60,2013-05-09 12:14:00
8:46 AM,55.4,55.4,100,30.00,2.5,North,4.6,-,N/A,,Overcast,360,2013-05-09 12:46:00
8:51 AM,55.9,55.0,97,30.00,4.0,North,4.6,-,N/A,,Overcast,350,2013-05-09 12:51:00
9:51 AM,57.0,55.0,93,29.99,10.0,Variable,3.5,-,N/A,,Overcast,0,2013-05-09 13:51:00
10:51 AM,59.0,57.0,93,29.99,7.0,Calm,Calm,-,0.00,Rain,Light Rain,0,2013-05-09 14:51:00
11:51 AM,60.1,57.0,90,29.97,10.0,ENE,3.5,-,0.01,,Overcast,60,2013-05-09 15:51:00
12:51 PM,62.1,57.9,86,29.96,10.0,Calm,Calm,-,N/A,,Overcast,0,2013-05-09 16:51:00
2:51 PM,61.0,57.9,90,29.94,10.0,Calm,Calm,-,0.00,Rain,Light Rain,0,2013-05-09 18:51:00
3:01 PM,60.8,57.2,88,29.94,3.0,Calm,Calm,-,0.02,Rain,Rain,0,2013-05-09 19:01:00
3:34 PM,60.8,59.0,94,29.94,2.0,SE,5.8,-,0.08,Rain,Rain,130,2013-05-09 19:34:00
3:51 PM,59.0,57.9,96,29.90,3.0,NE,5.8,-,0.12,Rain,Rain,50,2013-05-09 19:51:00
4:02 PM,59.0,57.2,94,29.90,3.0,NNE,3.5,-,0.03,Rain,Rain,20,2013-05-09 20:02:00
4:20 PM,60.8,57.2,88,29.91,10.0,Calm,Calm,-,0.03,,Overcast,0,2013-05-09 20:20:00
4:51 PM,60.1,57.9,93,29.91,10.0,South,3.5,-,0.03,,Overcast,190,2013-05-09 20:51:00
5:15 PM,59.0,57.2,94,29.91,10.0,SSE,5.8,-,N/A,,Overcast,150,2013-05-09 21:15:00
5:51 PM,59.0,57.0,93,29.91,10.0,SSE,5.8,-,N/A,,Overcast,160,2013-05-09 21:51:00
6:19 PM,59.0,57.2,94,29.92,10.0,SSE,4.6,-,N/A,,Overcast,160,2013-05-09 22:19:00
6:35 PM,59.0,57.2,94,29.91,10.0,Calm,Calm,-,N/A,,Overcast,0,2013-05-09 22:35:00
6:51 PM,59.0,55.9,90,29.91,10.0,Calm,Calm,-,N/A,,Overcast,0,2013-05-09 22:51:00
7:21 PM,59.0,57.2,94,29.92,10.0,SE,3.5,-,N/A,,Overcast,140,2013-05-09 23:21:00
7:51 PM,57.9,55.9,93,29.91,8.0,East,3.5,-,0.00,Rain,Light Rain,90,2013-05-09 23:51:00
8:51 PM,57.0,55.9,96,29.91,7.0,Calm,Calm,-,0.00,Rain,Light Rain,0,2013-05-10 00:51:00
9:31 PM,57.2,55.4,94,29.93,1.8,Calm,Calm,-,0.01,,Overcast,0,2013-05-10 01:31:00
9:51 PM,55.9,55.0,97,29.93,2.5,Calm,Calm,-,0.01,,Overcast,0,2013-05-10 01:51:00
9:58 PM,55.4,55.4,100,29.93,6.0,Calm,Calm,-,N/A,,Overcast,0,2013-05-10 01:58:00
10:42 PM,55.4,55.4,100,29.92,1.8,Calm,Calm,-,0.00,Rain,Light Rain,0,2013-05-10 02:42:00
10:51 PM,55.9,55.0,97,29.91,0.5,Calm,Calm,-,0.00,Fog,Fog,0,2013-05-10 02:51:00
11:17 PM,55.4,55.4,100,29.92,0.2,Calm,Calm,-,N/A,Fog,Fog,0,2013-05-10 03:17:00
11:51 PM,55.9,55.0,97,29.91,0.2,Calm,Calm,-,N/A,Fog,Fog,0,2013-05-10 03:51:00
11:58 PM,55.4,55.4,100,29.91,0.2,Calm,Calm,-,N/A,Fog,Fog,0,2013-05-10 03:58:00